SCP
0 0 0 0 0 0 0 0 0 0 1 1 1 1 1 1 1 0 1 1 1 1 1 1 1 1 1 1 2 1 1 1 1 1 1 1 1 1 1 1 1 1 1 1 1 1 1 1 1
0 0 0 0 0 0 0 0 0 0 1 1 1 1 1 1 1 1 1 1 1 1 1 1 1 1 1 2 2 2 1 1 1 1 1 1 1 1 1 1 1 1 1 1 1 1 1 1 1
0 0 0 0 0 0 0 0 1 1 1 1 1 1 1 1 1 1 1 1 1 1 1 1 1 2 2 2 2 2 1 1 2 2 2 2 2 2 1 1 1 1 1 1 1 1 1 1 1
0 0 0 0 0 0 0 0 1 1 1 1 1 1 1 1 1 1 1 1 1 1 1 1 2 2 2 2 2 2 2 2 2 2 2 2 2 2 2 1 1 1 1 1 1 1 1 1 1
0 0 0 0 0 0 0 1 1 1 1 1 1 1 1 2 2 2 1 1 2 2 1 2 2 2 2 2 2 2 2 2 2 2 2 2 2 2 2 2 2 1 1 1 1 1 1 1 1
0 0 0 0 1 1 1 1 1 1 1 1 1 1 1 1 2 2 2 1 2 2 2 2 2 2 2 2 2 2 2 2 2 2 2 2 2 2 2 2 2 2 2 2 2 2 2 2 2
0 0 0 0 1 1 2 2 1 1 1 1 1 1 1 1 2 2 2 1 2 2 2 1 1 2 2 2 2 2 2 2 2 2 2 2 2 2 2 2 2 2 2 2 2 1 1 2 2
0 0 0 0 1 1 2 2 2 1 1 1 1 1 1 1 2 2 2 2 2 2 2 1 1 2 2 2 2 2 2 2 1 1 1 1 1 1 1 2 2 2 2 1 1 1 1 1 1
0 0 1 1 1 1 1 2 1 1 1 1 1 1 2 2 2 2 2 2 2 2 2 1 2 2 2 2 2 1 1 1 1 1 1 1 1 1 1 2 2 1 1 1 1 1 1 1 1
0 1 1 1 1 1 1 1 1 1 2 2 1 2 2 2 2 2 2 2 2 2 2 1 2 2 2 2 2 1 1 1 1 1 1 1 1 1 1 1 1 1 1 1 1 1 1 1 1
1 1 1 1 1 1 1 1 1 1 2 2 2 2 3 3 3 3 2 2 2 2 2 1 2 2 2 2 2 1 1 1 1 1 1 1 1 2 2 2 1 1 1 1 1 1 1 1 1
1 2 2 2 1 1 1 1 1 2 3 2 2 2 3 4 4 3 3 3 3 2 2 2 2 2 2 2 2 2 2 1 1 1 1 1 2 2 2 2 1 1 1 1 1 1 1 1 1
1 2 3 2 2 2 2 2 2 3 4 3 2 3 4 5 5 4 3 3 3 2 2 2 2 2 2 2 1 1 1 1 1 1 1 1 2 2 1 1 1 1 1 1 1 1 1 1 1
1 2 3 3 2 2 2 2 2 3 3 3 3 3 3 5 5 4 3 3 3 2 2 2 2 2 2 2 1 1 1 1 1 1 1 1 1 1 1 1 1 1 1 1 0 0 1 1 1
1 2 2 2 2 2 2 2 2 2 3 3 3 3 3 3 4 3 3 3 2 2 2 2 2 2 2 2 2 1 1 1 1 1 0 0 1 1 1 1 1 1 1 1 0 0 0 1 1
1 1 2 2 2 2 2 3 3 2 3 3 3 3 3 3 3 3 3 3 3 2 2 2 2 2 2 2 2 2 1 1 0 0 0 0 1 1 1 1 1 1 1 1 0 0 0 0 0
1 1 1 2 2 2 2 3 3 3 3 3 3 3 4 4 4 5 5 4 4 3 2 2 2 2 2 2 2 2 1 1 0 0 0 0 1 1 1 1 2 3 2 1 1 1 1 0 0
1 1 1 1 1 1 2 2 2 3 3 3 3 3 3 4 5 6 5 5 4 4 3 2 2 2 2 2 2 1 1 1 1 1 1 1 1 1 1 1 3 5 3 1 1 1 1 0 0
0 1 1 1 1 1 1 2 2 3 3 2 2 2 2 3 5 5 5 5 4 4 4 3 1 1 2 2 2 1 1 1 1 1 1 1 1 1 1 1 2 3 2 1 1 1 1 1 0
0 0 0 1 1 1 2 2 2 2 2 2 2 2 2 3 4 4 4 4 4 4 4 2 1 1 1 1 2 2 2 1 1 1 1 1 1 1 1 1 1 1 1 1 1 1 1 1 1
0 0 0 1 1 1 1 2 2 2 2 2 1 2 2 2 3 3 3 3 3 3 3 2 1 1 1 1 2 2 2 2 1 1 1 1 1 1 1 1 1 1 1 1 1 1 1 1 1
0 0 0 1 1 1 1 1 1 1 2 2 2 2 2 2 2 2 2 2 2 2 2 2 2 2 1 2 2 2 2 2 1 1 1 1 1 1 1 1 1 1 1 1 1 1 1 1 1
0 0 0 0 0 1 1 1 1 1 1 2 2 2 3 3 3 2 2 2 2 2 2 2 2 2 2 2 3 2 2 2 1 1 1 1 1 1 1 1 1 1 1 1 1 1 1 1 1
0 0 0 0 0 0 0 0 0 1 1 1 2 2 3 3 3 2 1 1 1 2 3 3 3 3 3 4 4 3 3 2 1 1 1 1 1 1 1 1 1 1 1 1 0 1 1 1 1
0 0 0 0 0 0 0 0 0 0 1 1 1 2 2 3 2 2 1 1 1 2 3 4 4 4 4 4 4 4 3 2 2 1 1 1 1 1 1 1 1 1 0 0 0 0 1 1 1
0 0 0 0 0 0 0 0 0 0 1 1 1 1 2 2 2 2 2 2 1 2 4 5 5 4 4 5 4 4 3 2 2 1 1 1 0 0 0 0 0 0 0 0 0 0 0 1 1
0 0 0 0 0 0 0 0 0 0 1 1 1 1 1 2 2 3 3 3 2 2 3 4 5 4 4 4 3 3 2 2 1 1 0 0 0 0 0 0 0 0 0 0 0 0 0 0 1
0 0 0 0 0 0 0 0 0 0 1 1 1 1 1 2 3 3 3 3 3 2 2 3 4 4 3 3 2 2 1 1 1 0 0 0 0 0 0 0 0 0 0 0 0 0 0 0 0
0 0 0 0 0 0 0 0 0 0 1 1 1 1 1 2 2 2 2 2 2 2 2 2 2 2 2 2 1 1 1 0 0 0 0 0 0 0 0 0 0 0 0 0 0 0 0 0 0
0 0 0 0 0 0 0 0 0 0 1 1 1 1 1 1 2 2 1 1 1 1 1 2 2 2 1 1 1 1 0 0 0 0 0 0 0 0 0 0 0 0 0 0 0 0 0 0 0
Wind_Speed
4 1 2 3 6 5 1 2 0 1 2 2 5 6 6 4 2 3 2 8 11 11 9 12 15 15 15 15 15 15 15 15 15 14 14 14 13 12 11 11 10 9 9 9 9 8 8 8 7
1 1 3 5 6 2 3 2 0 1 3 4 6 6 6 5 4 5 4 7 11 11 8 10 15 15 15 15 14 14 14 14 14 13 13 12 12 11 10 10 9 9 8 8 7 7 7 7 6
1 2 5 5 4 4 2 1 2 4 5 4 5 5 4 3 4 4 5 10 10 9 7 9 15 14 14 14 14 13 13 13 13 12 12 11 11 10 9 9 8 7 7 6 6 6 6 5 5
2 4 6 5 2 3 2 1 3 4 4 5 5 5 4 4 2 5 10 11 10 8 6 9 14 14 14 13 13 12 12 12 11 11 10 9 9 8 8 7 7 6 6 5 5 4 4 4 4
4 5 5 3 2 2 2 1 2 3 3 4 5 5 4 5 8 11 11 10 10 8 5 8 12 13 13 13 12 11 11 10 10 9 9 8 7 6 6 6 5 5 4 4 3 3 2 2 2
5 5 5 1 2 2 1 1 3 4 4 4 4 5 3 3 8 9 10 9 8 8 6 6 11 12 12 12 11 10 10 9 8 8 7 6 6 5 4 4 3 3 3 2 2 2 1 0 0
5 5 4 3 1 1 0 2 3 4 4 2 3 5 3 4 6 8 9 9 8 7 6 5 5 7 9 10 10 9 9 8 7 6 6 5 4 4 3 3 2 2 2 2 1 1 0 1 1
5 6 3 1 2 1 1 3 3 4 3 2 3 5 5 6 8 9 9 8 8 6 5 4 4 4 4 5 8 8 8 7 6 6 5 5 4 3 3 2 1 1 0 0 1 1 1 2 3
4 6 2 3 4 2 1 3 2 3 5 4 3 3 7 13 12 11 9 7 6 6 4 4 4 4 4 3 5 5 6 5 5 4 4 4 2 2 2 2 1 1 1 1 1 2 2 2 3
5 4 3 3 4 4 2 3 3 4 5 4 5 8 13 12 11 11 10 8 6 5 4 3 4 4 3 3 3 3 3 3 3 2 3 2 2 2 2 3 3 3 3 3 3 3 2 1 1
3 4 2 1 3 5 4 3 3 6 2 3 8 13 13 11 9 8 8 6 6 5 4 3 3 4 4 3 3 2 2 2 2 3 2 2 2 2 2 2 3 3 3 3 3 3 2 1 1
2 1 2 2 3 4 4 3 4 3 2 5 9 13 12 11 8 8 7 6 5 5 4 3 3 4 3 3 3 2 2 1 2 2 2 1 1 1 1 1 2 2 2 2 2 1 2 2 1
2 0 2 4 6 5 7 5 5 4 5 10 12 11 10 9 7 5 5 5 5 4 3 3 3 4 3 3 2 2 2 2 2 2 2 2 2 1 1 1 1 2 2 2 2 2 2 2 2
2 3 3 3 4 3 7 4 5 4 8 11 11 9 7 7 7 6 5 5 4 3 3 3 3 3 4 3 3 2 2 2 2 2 2 2 1 1 1 1 1 2 2 2 1 1 1 1 2
3 4 5 3 3 2 6 6 3 6 9 10 10 8 7 6 6 6 5 5 4 3 3 3 3 4 4 4 3 2 2 2 2 2 2 2 2 1 1 1 1 2 2 2 1 2 2 2 2
3 4 2 2 2 1 5 3 3 6 10 9 8 8 7 5 5 4 4 4 4 4 3 3 3 4 4 3 3 2 2 2 2 2 2 3 2 2 1 1 2 2 2 2 1 2 2 2 2
5 3 1 1 0 2 4 4 5 7 9 9 7 7 6 5 4 3 4 4 4 4 3 3 3 4 4 4 3 3 2 2 2 2 2 3 3 3 2 1 2 2 2 2 2 1 1 2 2
1 2 1 2 1 3 3 3 5 7 8 8 7 7 7 6 5 4 4 3 3 4 4 4 4 3 3 3 3 2 3 2 2 2 3 3 3 3 2 2 3 3 2 2 2 2 1 1 2
4 3 1 2 2 3 4 5 6 7 7 7 6 7 7 6 4 4 3 3 4 4 4 3 3 2 2 2 2 2 2 2 2 2 3 3 3 3 2 2 2 2 2 2 2 1 1 1 1
3 2 0 1 1 3 3 3 4 7 8 8 8 8 8 6 6 5 4 3 3 3 3 3 2 2 2 2 2 2 2 1 1 2 3 4 3 3 2 2 2 2 2 2 2 1 1 1 1
2 4 4 3 3 3 4 1 3 4 4 5 5 6 8 9 9 7 5 4 3 3 3 3 3 2 2 2 2 3 3 2 2 2 3 3 4 3 3 2 2 2 2 1 2 1 1 1 1
3 5 6 5 4 1 2 3 4 4 5 7 7 7 8 8 8 7 6 4 3 2 2 3 3 2 2 3 3 3 2 1 0 1 1 3 3 3 3 3 3 2 2 2 2 2 1 0 1
4 3 5 4 4 2 1 2 5 2 6 9 9 8 8 8 8 7 6 5 3 2 2 2 3 3 3 3 3 3 2 1 1 1 2 2 3 3 4 3 3 3 2 2 2 2 1 0 1
6 7 6 6 5 1 2 3 5 4 7 5 6 8 8 7 7 6 5 5 4 3 3 3 3 2 3 3 3 3 3 2 2 1 2 2 2 3 4 4 3 3 2 2 2 2 1 1 1
5 6 4 5 4 4 1 2 7 4 3 4 5 6 6 7 7 7 6 5 4 4 3 3 3 2 2 3 3 2 3 2 2 1 1 1 2 2 4 4 3 3 3 2 2 2 2 1 1
3 7 7 5 5 4 1 4 6 2 2 1 3 5 6 7 6 6 6 5 4 4 4 3 3 2 2 2 2 2 2 2 1 1 1 1 1 2 3 3 3 3 3 3 2 1 2 2 2
5 3 4 7 2 1 4 5 5 0 2 3 5 6 6 6 6 6 5 5 4 4 4 4 3 2 2 2 2 2 2 2 1 1 1 1 1 2 3 3 3 3 3 3 3 2 2 2 2
4 8 5 5 4 3 4 4 4 4 2 2 4 5 5 5 6 6 5 4 3 3 3 4 4 3 2 2 2 2 2 1 1 1 1 2 2 2 3 3 3 3 4 4 3 2 2 3 2
3 4 5 4 4 5 3 6 4 5 5 6 5 6 6 6 6 5 4 4 3 3 4 3 3 3 2 1 2 2 2 2 2 2 2 1 2 2 3 3 3 3 3 3 3 3 3 3 3
2 4 6 4 3 4 3 7 3 2 4 6 6 5 6 6 5 5 5 5 4 3 3 3 3 3 2 2 2 2 2 2 2 2 2 2 2 2 2 2 3 3 3 3 3 3 4 3 3
Wind_Direction
296 314 105 71 56 50 331 285 269 25 56 62 96 102 106 91 127 143 99 126 128 136 141 141 136 130 126 122 118 116 114 114 114 115 117 118 119 119 119 118 116 114 113 111 111 112 111 110 113
287 123 64 62 82 68 287 273 118 85 127 104 76 75 77 70 66 93 110 128 131 135 136 141 137 132 128 125 122 120 119 118 118 119 120 121 121 121 120 119 118 115 114 113 115 116 115 115 118
262 69 84 75 103 170 216 212 133 91 81 76 76 57 67 75 98 102 124 129 127 130 132 143 138 134 131 129 127 125 124 122 122 121 121 122 122 122 122 121 120 118 117 117 116 116 117 119 121
93 54 57 77 155 219 215 188 129 97 54 50 90 73 57 29 91 118 127 128 126 126 129 142 139 137 134 132 130 129 127 126 125 124 123 122 122 121 122 122 122 122 121 120 120 120 118 120 122
63 80 71 61 259 266 253 186 122 101 83 68 86 89 46 14 92 116 125 127 127 124 122 136 138 138 138 136 134 133 132 130 128 127 126 125 123 123 125 126 126 127 129 130 131 126 119 113 117
61 71 90 152 271 290 297 15 97 96 101 93 96 99 72 91 108 119 120 118 124 126 121 128 138 139 138 137 137 136 134 131 128 127 126 125 125 126 129 131 135 138 139 136 139 140 139 138 46
104 100 133 165 224 332 81 43 79 107 105 104 106 107 110 118 112 115 110 108 109 112 114 115 128 133 136 137 137 136 132 128 126 126 125 125 126 130 134 136 144 147 148 150 155 176 198 292 300
121 103 106 160 159 208 29 53 60 89 107 77 91 131 150 145 121 110 106 105 107 105 102 93 99 102 111 124 132 131 127 123 122 123 123 122 114 108 102 88 114 143 166 226 246 273 283 290 294
89 78 133 200 175 186 127 86 49 63 90 70 59 102 128 130 124 119 115 110 109 107 97 89 89 88 92 105 121 120 119 112 108 105 106 99 71 59 51 33 30 360 338 311 301 294 298 312 315
86 115 212 210 176 155 129 110 122 99 82 79 77 92 119 128 131 131 132 131 128 125 116 90 93 91 87 96 86 77 85 82 77 73 75 72 64 44 40 13 10 10 10 351 334 325 320 338 316
120 167 209 192 152 130 114 84 87 117 110 156 142 136 134 133 133 132 130 130 128 127 121 106 98 89 80 72 78 68 65 65 62 57 57 60 58 36 29 19 5 1 0 358 349 348 346 345 317
125 240 182 146 111 101 114 112 85 81 134 116 127 134 134 138 138 137 135 130 119 119 118 104 93 94 85 80 80 76 71 66 54 43 51 62 54 40 22 21 4 4 0 350 348 341 338 333 334
136 124 68 97 91 98 97 96 105 90 97 104 113 119 128 129 121 111 110 110 111 119 116 112 106 110 103 92 86 79 71 71 55 41 41 54 45 17 7 15 4 359 357 346 334 343 344 337 336
139 107 78 59 80 87 104 84 84 104 107 107 112 117 129 132 131 121 114 114 112 112 105 108 112 112 104 97 95 89 79 70 58 42 29 42 44 21 15 14 8 359 343 325 319 329 335 333 347
101 80 41 29 60 106 100 64 85 128 118 116 118 123 126 117 115 125 136 129 123 117 100 101 108 94 100 101 96 85 75 74 64 39 26 30 31 26 30 24 11 351 336 331 342 0 1 6 7
64 65 56 321 72 94 104 135 149 141 131 130 131 135 125 107 107 113 117 114 112 109 100 93 100 98 98 96 96 89 76 74 59 43 31 29 27 37 49 34 7 349 348 360 2 16 6 7 1
45 82 115 299 154 120 122 162 165 153 144 145 146 143 137 128 119 115 112 113 113 113 107 89 82 88 93 91 85 83 75 64 50 43 33 24 28 40 62 44 3 5 12 13 3 24 21 2 354
145 125 144 227 215 124 135 160 160 161 157 158 160 155 153 158 161 141 123 121 111 100 91 84 79 82 96 95 85 73 65 49 42 39 28 27 26 34 40 36 13 15 15 6 4 4 11 352 338
144 137 220 258 188 144 160 163 171 164 165 167 170 165 168 166 148 133 128 123 104 89 88 89 90 93 105 103 102 91 72 46 32 28 29 29 27 30 35 22 14 14 14 356 1 359 7 2 2
134 122 254 345 82 129 135 157 175 177 188 185 184 177 172 161 153 155 150 131 117 114 108 102 101 103 108 119 121 113 104 79 54 14 24 24 23 19 26 24 9 4 12 9 7 12 8 331 360
172 178 198 174 71 72 116 142 198 193 190 200 196 181 174 172 172 170 165 150 134 129 125 109 105 97 93 95 91 82 64 48 31 13 8 5 14 19 23 23 19 8 18 350 340 355 12 309 309
228 209 178 156 126 195 155 219 243 202 204 213 209 193 182 177 172 170 165 155 150 145 116 109 111 105 101 104 112 111 108 103 4 345 349 359 10 13 19 24 26 19 13 357 339 10 342 319 302
196 105 117 121 125 92 30 167 278 192 223 227 215 202 192 183 173 171 166 155 143 120 103 102 103 95 93 98 112 110 111 116 70 46 27 11 2 8 13 15 16 13 2 351 353 355 353 309 264
124 78 63 57 73 72 233 169 267 222 227 232 212 202 191 178 166 155 144 134 125 111 104 103 102 87 86 95 93 104 123 116 95 58 23 1 355 359 5 8 7 1 355 349 344 344 348 341 306
87 90 41 6 10 256 234 195 250 258 249 218 208 193 173 161 156 152 146 141 134 125 118 106 104 90 87 95 92 103 122 125 122 121 34 2 356 349 345 357 353 349 347 348 3 11 4 2 354
146 134 153 193 221 266 308 237 257 294 320 159 150 151 146 148 150 151 148 142 141 143 139 130 119 114 108 108 107 106 112 116 120 117 92 8 324 314 327 345 347 346 354 4 13 14 -0 16 10
129 130 151 129 142 261 273 276 295 61 40 79 116 130 141 145 145 146 145 145 147 156 160 149 137 131 115 110 106 103 103 102 98 59 60 9 327 331 347 354 355 355 4 7 11 17 2 9 6
118 138 102 115 148 247 282 268 256 245 218 143 140 145 142 140 140 143 147 146 148 156 149 136 136 141 126 117 116 107 90 86 82 68 44 15 356 355 356 360 0 4 11 12 18 12 0 10 355
102 94 103 112 151 162 247 268 233 214 191 176 172 160 154 151 151 149 145 141 136 130 133 131 128 126 116 113 95 87 73 64 66 58 30 14 6 7 7 2 5 10 11 9 13 3 359 6 359
158 161 147 151 208 174 187 264 310 209 167 160 161 158 153 150 145 139 135 128 126 130 134 135 137 133 134 123 106 96 82 69 59 44 26 24 17 6 3 7 13 11 9 4 7 1 358 360 359